,Coso Junction,Coso Junction
,PM10_1HR,PM10_1HR
,,
Date,Value,Null Code
01-Jun-2020 00:00,20.3,
01-Jun-2020 01:00,20.9,
01-Jun-2020 02:00,19.6,
01-Jun-2020 03:00,17.2,
01-Jun-2020 04:00,25.5,
01-Jun-2020 05:00,58.8,
01-Jun-2020 06:00,15.8,
01-Jun-2020 07:00,,AV
01-Jun-2020 08:00,,AV
01-Jun-2020 09:00,,AV
01-Jun-2020 10:00,34.2,
01-Jun-2020 11:00,28.5,
01-Jun-2020 12:00,17.3,
01-Jun-2020 13:00,16.3,
01-Jun-2020 14:00,12.8,
01-Jun-2020 15:00,11.7,
01-Jun-2020 16:00,13.3,
01-Jun-2020 17:00,13.8,
01-Jun-2020 18:00,21.2,
01-Jun-2020 19:00,35.2,
01-Jun-2020 20:00,14.9,
01-Jun-2020 21:00,19.7,
01-Jun-2020 22:00,23.6,
01-Jun-2020 23:00,19.1,
02-Jun-2020 00:00,23.2,
02-Jun-2020 01:00,19.3,
02-Jun-2020 02:00,20.5,
02-Jun-2020 03:00,33.7,
02-Jun-2020 04:00,35,
02-Jun-2020 05:00,41.3,
02-Jun-2020 06:00,17,
02-Jun-2020 07:00,21.1,
02-Jun-2020 08:00,19.9,
02-Jun-2020 09:00,13.2,
02-Jun-2020 10:00,10,
02-Jun-2020 11:00,26.6,
02-Jun-2020 12:00,23.4,
02-Jun-2020 13:00,15.2,
02-Jun-2020 14:00,22.8,
02-Jun-2020 15:00,21.9,
02-Jun-2020 16:00,14.6,
02-Jun-2020 17:00,17.4,
02-Jun-2020 18:00,19,
02-Jun-2020 19:00,16.1,
02-Jun-2020 20:00,18.3,
02-Jun-2020 21:00,20.1,
02-Jun-2020 22:00,21.9,
02-Jun-2020 23:00,25.3,
03-Jun-2020 00:00,23.5,
03-Jun-2020 01:00,22,
03-Jun-2020 02:00,25.3,
03-Jun-2020 03:00,24.8,
03-Jun-2020 04:00,50.7,
03-Jun-2020 05:00,25.1,
03-Jun-2020 06:00,21.1,
03-Jun-2020 07:00,21.9,
03-Jun-2020 08:00,15.4,
03-Jun-2020 09:00,14.4,
03-Jun-2020 10:00,16.3,
03-Jun-2020 11:00,,BA
03-Jun-2020 12:00,,BA
03-Jun-2020 13:00,,BA
03-Jun-2020 14:00,13.6,
03-Jun-2020 15:00,17.6,
03-Jun-2020 16:00,29.7,
03-Jun-2020 17:00,13.2,
03-Jun-2020 18:00,12.1,
03-Jun-2020 19:00,16.6,
03-Jun-2020 20:00,17.6,
03-Jun-2020 21:00,20.2,
03-Jun-2020 22:00,14.6,
03-Jun-2020 23:00,15.2,
04-Jun-2020 00:00,14.4,
04-Jun-2020 01:00,14.4,
04-Jun-2020 02:00,14.6,
04-Jun-2020 03:00,16.3,
04-Jun-2020 04:00,17.4,
04-Jun-2020 05:00,16.6,
04-Jun-2020 06:00,17.3,
04-Jun-2020 07:00,15.8,
04-Jun-2020 08:00,32.5,
04-Jun-2020 09:00,17.7,
04-Jun-2020 10:00,12.6,
04-Jun-2020 11:00,14.8,
04-Jun-2020 12:00,18.4,
04-Jun-2020 13:00,14.2,
04-Jun-2020 14:00,22.2,
04-Jun-2020 15:00,19.3,
04-Jun-2020 16:00,18,
04-Jun-2020 17:00,17.6,
04-Jun-2020 18:00,25.6,
04-Jun-2020 19:00,38.6,
04-Jun-2020 20:00,26,
04-Jun-2020 21:00,29.9,
04-Jun-2020 22:00,30.5,
04-Jun-2020 23:00,30.5,
05-Jun-2020 00:00,28.3,
05-Jun-2020 01:00,33,
05-Jun-2020 02:00,37.1,
05-Jun-2020 03:00,33.3,
05-Jun-2020 04:00,37.4,
05-Jun-2020 05:00,56.5,
05-Jun-2020 06:00,29.3,
05-Jun-2020 07:00,24.5,
05-Jun-2020 08:00,28,
05-Jun-2020 09:00,40.1,
05-Jun-2020 10:00,35.3,
05-Jun-2020 11:00,27.2,
05-Jun-2020 12:00,36,
05-Jun-2020 13:00,25,
05-Jun-2020 14:00,53.7,
05-Jun-2020 15:00,247.8,
05-Jun-2020 16:00,55.8,
05-Jun-2020 17:00,27,
05-Jun-2020 18:00,17.6,
05-Jun-2020 19:00,12.8,
05-Jun-2020 20:00,10.4,
05-Jun-2020 21:00,14,
05-Jun-2020 22:00,25.1,
05-Jun-2020 23:00,18.7,
06-Jun-2020 00:00,19.1,
06-Jun-2020 01:00,26.4,
06-Jun-2020 02:00,23.9,
06-Jun-2020 03:00,23.3,
06-Jun-2020 04:00,24.4,
06-Jun-2020 05:00,21.2,
06-Jun-2020 06:00,20.5,
06-Jun-2020 07:00,15.9,
06-Jun-2020 08:00,23,
06-Jun-2020 09:00,21.4,
06-Jun-2020 10:00,14.7,
06-Jun-2020 11:00,11.2,
06-Jun-2020 12:00,5.1,
06-Jun-2020 13:00,26.4,
06-Jun-2020 14:00,34.4,
06-Jun-2020 15:00,16.8,
06-Jun-2020 16:00,28,
06-Jun-2020 17:00,28.1,
06-Jun-2020 18:00,24.5,
06-Jun-2020 19:00,28.4,
06-Jun-2020 20:00,30.9,
06-Jun-2020 21:00,16.9,
06-Jun-2020 22:00,4.8,
06-Jun-2020 23:00,8,
07-Jun-2020 00:00,5.6,
07-Jun-2020 01:00,7.4,
07-Jun-2020 02:00,6.9,
07-Jun-2020 03:00,7.1,
07-Jun-2020 04:00,7.4,
07-Jun-2020 05:00,2.7,
07-Jun-2020 06:00,3.7,
07-Jun-2020 07:00,5.4,
07-Jun-2020 08:00,5,
07-Jun-2020 09:00,5.3,
07-Jun-2020 10:00,9,
07-Jun-2020 11:00,11.1,
07-Jun-2020 12:00,7.6,
07-Jun-2020 13:00,11.4,
07-Jun-2020 14:00,15.6,
07-Jun-2020 15:00,17.7,
07-Jun-2020 16:00,35.5,
07-Jun-2020 17:00,35,
07-Jun-2020 18:00,23.1,
07-Jun-2020 19:00,9.9,
07-Jun-2020 20:00,9.9,
07-Jun-2020 21:00,26.3,
07-Jun-2020 22:00,110,
07-Jun-2020 23:00,158.5,
08-Jun-2020 00:00,77.6,
08-Jun-2020 01:00,44.6,
08-Jun-2020 02:00,29.4,
08-Jun-2020 03:00,23.8,
08-Jun-2020 04:00,96.7,
08-Jun-2020 05:00,40.3,
08-Jun-2020 06:00,17.1,
08-Jun-2020 07:00,13.3,
08-Jun-2020 08:00,16,
08-Jun-2020 09:00,11.6,
08-Jun-2020 10:00,6.7,
08-Jun-2020 11:00,2.8,
08-Jun-2020 12:00,4.8,
08-Jun-2020 13:00,0.7,
08-Jun-2020 14:00,4.3,
08-Jun-2020 15:00,4.5,
08-Jun-2020 16:00,7.4,
08-Jun-2020 17:00,7.9,
08-Jun-2020 18:00,7.7,
08-Jun-2020 19:00,7.8,
08-Jun-2020 20:00,14.8,
08-Jun-2020 21:00,14.9,
08-Jun-2020 22:00,12.8,
08-Jun-2020 23:00,19,
09-Jun-2020 00:00,18.6,
09-Jun-2020 01:00,21.2,
09-Jun-2020 02:00,20.4,
09-Jun-2020 03:00,20.5,
09-Jun-2020 04:00,17.5,
09-Jun-2020 05:00,7.6,
09-Jun-2020 06:00,13.8,
09-Jun-2020 07:00,10.2,
09-Jun-2020 08:00,8.6,
09-Jun-2020 09:00,6.4,
09-Jun-2020 10:00,5.6,
09-Jun-2020 11:00,11.7,
09-Jun-2020 12:00,10.8,
09-Jun-2020 13:00,8.6,
09-Jun-2020 14:00,22.3,
09-Jun-2020 15:00,10.8,
09-Jun-2020 16:00,11.8,
09-Jun-2020 17:00,10.6,
09-Jun-2020 18:00,9.2,
09-Jun-2020 19:00,12.7,
09-Jun-2020 20:00,19.3,
09-Jun-2020 21:00,17.9,
09-Jun-2020 22:00,18.3,
09-Jun-2020 23:00,20.1,
10-Jun-2020 00:00,22.3,
10-Jun-2020 01:00,20.5,
10-Jun-2020 02:00,17.8,
10-Jun-2020 03:00,15.4,
10-Jun-2020 04:00,21.2,
10-Jun-2020 05:00,18.7,
10-Jun-2020 06:00,17,
10-Jun-2020 07:00,12.7,
10-Jun-2020 08:00,7.5,
10-Jun-2020 09:00,7.5,
10-Jun-2020 10:00,,BA
10-Jun-2020 11:00,16.3,
10-Jun-2020 12:00,9.1,
10-Jun-2020 13:00,9.4,
10-Jun-2020 14:00,9.4,
10-Jun-2020 15:00,6.2,
10-Jun-2020 16:00,4.5,
10-Jun-2020 17:00,9.7,
10-Jun-2020 18:00,10.5,
10-Jun-2020 19:00,11.4,
10-Jun-2020 20:00,20.7,
10-Jun-2020 21:00,21.4,
10-Jun-2020 22:00,21.4,
10-Jun-2020 23:00,24.6,
11-Jun-2020 00:00,26.9,
11-Jun-2020 01:00,29.3,
11-Jun-2020 02:00,31.8,
11-Jun-2020 03:00,26.5,
11-Jun-2020 04:00,26.8,
11-Jun-2020 05:00,39.8,
11-Jun-2020 06:00,34.1,
11-Jun-2020 07:00,13.8,
11-Jun-2020 08:00,25.1,
11-Jun-2020 09:00,25.4,
11-Jun-2020 10:00,29.7,
11-Jun-2020 11:00,26.2,
11-Jun-2020 12:00,27.3,
11-Jun-2020 13:00,28.6,
11-Jun-2020 14:00,32.1,
11-Jun-2020 15:00,23.2,
11-Jun-2020 16:00,19.8,
11-Jun-2020 17:00,27.1,
11-Jun-2020 18:00,25.8,
11-Jun-2020 19:00,24.5,
11-Jun-2020 20:00,29.7,
11-Jun-2020 21:00,27.6,
11-Jun-2020 22:00,27,
11-Jun-2020 23:00,25.6,
12-Jun-2020 00:00,22.6,
12-Jun-2020 01:00,28.8,
12-Jun-2020 02:00,27.2,
12-Jun-2020 03:00,30.5,
12-Jun-2020 04:00,30.9,
12-Jun-2020 05:00,47.2,
12-Jun-2020 06:00,27,
12-Jun-2020 07:00,25.4,
12-Jun-2020 08:00,39.7,
12-Jun-2020 09:00,37.4,
12-Jun-2020 10:00,50.5,
12-Jun-2020 11:00,22,
12-Jun-2020 12:00,30.9,
12-Jun-2020 13:00,34.4,
12-Jun-2020 14:00,43.1,
12-Jun-2020 15:00,57.6,
12-Jun-2020 16:00,29.9,
12-Jun-2020 17:00,32,
12-Jun-2020 18:00,32.7,
12-Jun-2020 19:00,41.5,
12-Jun-2020 20:00,94.9,
12-Jun-2020 21:00,84,
12-Jun-2020 22:00,57.2,
12-Jun-2020 23:00,15.6,
13-Jun-2020 00:00,19.8,
13-Jun-2020 01:00,8.2,
13-Jun-2020 02:00,34.7,
13-Jun-2020 03:00,35.6,
13-Jun-2020 04:00,28.5,
13-Jun-2020 05:00,74.3,
13-Jun-2020 06:00,74.3,
13-Jun-2020 07:00,17.6,
13-Jun-2020 08:00,17.2,
13-Jun-2020 09:00,22.8,
13-Jun-2020 10:00,14.2,
13-Jun-2020 11:00,13.2,
13-Jun-2020 12:00,13.1,
13-Jun-2020 13:00,12.9,
13-Jun-2020 14:00,11.1,
13-Jun-2020 15:00,44.2,
13-Jun-2020 16:00,21.7,
13-Jun-2020 17:00,25.5,
13-Jun-2020 18:00,13.8,
13-Jun-2020 19:00,14.2,
13-Jun-2020 20:00,25.1,
13-Jun-2020 21:00,22.1,
13-Jun-2020 22:00,31,
13-Jun-2020 23:00,24.1,
14-Jun-2020 00:00,23.7,
14-Jun-2020 01:00,11.6,
14-Jun-2020 02:00,11.8,
14-Jun-2020 03:00,12.7,
14-Jun-2020 04:00,12.7,
14-Jun-2020 05:00,9.2,
14-Jun-2020 06:00,10.9,
14-Jun-2020 07:00,9.3,
14-Jun-2020 08:00,10.8,
14-Jun-2020 09:00,8.3,
14-Jun-2020 10:00,5,
14-Jun-2020 11:00,18.8,
14-Jun-2020 12:00,16.1,
14-Jun-2020 13:00,18.8,
14-Jun-2020 14:00,18.3,
14-Jun-2020 15:00,17.3,
14-Jun-2020 16:00,20.1,
14-Jun-2020 17:00,22.4,
14-Jun-2020 18:00,18.1,
14-Jun-2020 19:00,19.2,
14-Jun-2020 20:00,21.9,
14-Jun-2020 21:00,27,
14-Jun-2020 22:00,26.6,
14-Jun-2020 23:00,26.7,
15-Jun-2020 00:00,26.8,
15-Jun-2020 01:00,22.2,
15-Jun-2020 02:00,23.7,
15-Jun-2020 03:00,27.5,
15-Jun-2020 04:00,32.2,
15-Jun-2020 05:00,25.1,
15-Jun-2020 06:00,19.4,
15-Jun-2020 07:00,14.8,
15-Jun-2020 08:00,15.7,
15-Jun-2020 09:00,25.6,
15-Jun-2020 10:00,34.5,
15-Jun-2020 11:00,23.6,
15-Jun-2020 12:00,25.5,
15-Jun-2020 13:00,23.8,
15-Jun-2020 14:00,58.3,
15-Jun-2020 15:00,32.9,
15-Jun-2020 16:00,22.5,
15-Jun-2020 17:00,19.7,
15-Jun-2020 18:00,17,
15-Jun-2020 19:00,8.2,
15-Jun-2020 20:00,17.6,
15-Jun-2020 21:00,23.9,
15-Jun-2020 22:00,20.5,
15-Jun-2020 23:00,9.1,
16-Jun-2020 00:00,15.3,
16-Jun-2020 01:00,17.2,
16-Jun-2020 02:00,10.8,
16-Jun-2020 03:00,16.3,
16-Jun-2020 04:00,19.5,
16-Jun-2020 05:00,40.1,
16-Jun-2020 06:00,15,
16-Jun-2020 07:00,10,
16-Jun-2020 08:00,6.6,
16-Jun-2020 09:00,9.8,
16-Jun-2020 10:00,12.4,
16-Jun-2020 11:00,16.1,
16-Jun-2020 12:00,16.4,
16-Jun-2020 13:00,15.5,
16-Jun-2020 14:00,18.2,
16-Jun-2020 15:00,38.6,
16-Jun-2020 16:00,17.1,
16-Jun-2020 17:00,9.1,
16-Jun-2020 18:00,26.3,
16-Jun-2020 19:00,28.1,
16-Jun-2020 20:00,28.4,
16-Jun-2020 21:00,23.2,
16-Jun-2020 22:00,22.6,
16-Jun-2020 23:00,25.7,
17-Jun-2020 00:00,26,
17-Jun-2020 01:00,58.9,
17-Jun-2020 02:00,55.2,
17-Jun-2020 03:00,62.9,
17-Jun-2020 04:00,40.4,
17-Jun-2020 05:00,62,
17-Jun-2020 06:00,114.8,
17-Jun-2020 07:00,114.8,
17-Jun-2020 08:00,47.7,
17-Jun-2020 09:00,40.9,
17-Jun-2020 10:00,32.5,
17-Jun-2020 11:00,28.8,
17-Jun-2020 12:00,26.8,
17-Jun-2020 13:00,31.3,
17-Jun-2020 14:00,,AX
17-Jun-2020 15:00,,AX
17-Jun-2020 16:00,38.4,
17-Jun-2020 17:00,48.3,
17-Jun-2020 18:00,47.1,
17-Jun-2020 19:00,40.7,
17-Jun-2020 20:00,49.1,
17-Jun-2020 21:00,43.3,
17-Jun-2020 22:00,43.4,
17-Jun-2020 23:00,35.7,
18-Jun-2020 00:00,21.3,
18-Jun-2020 01:00,14.2,
18-Jun-2020 02:00,13,
18-Jun-2020 03:00,13.4,
18-Jun-2020 04:00,12.2,
18-Jun-2020 05:00,11.4,
18-Jun-2020 06:00,17.5,
18-Jun-2020 07:00,15.5,
18-Jun-2020 08:00,14.2,
18-Jun-2020 09:00,12,
18-Jun-2020 10:00,10.9,
18-Jun-2020 11:00,11.4,
18-Jun-2020 12:00,16,
18-Jun-2020 13:00,19.4,
18-Jun-2020 14:00,18.3,
18-Jun-2020 15:00,18.8,
18-Jun-2020 16:00,19.7,
18-Jun-2020 17:00,21.6,
18-Jun-2020 18:00,16.2,
18-Jun-2020 19:00,39.5,
18-Jun-2020 20:00,38.2,
18-Jun-2020 21:00,31.4,
18-Jun-2020 22:00,37.2,
18-Jun-2020 23:00,33.7,
19-Jun-2020 00:00,35.8,
19-Jun-2020 01:00,35.5,
19-Jun-2020 02:00,15.5,
19-Jun-2020 03:00,18.4,
19-Jun-2020 04:00,18.3,
19-Jun-2020 05:00,15,
19-Jun-2020 06:00,12.8,
19-Jun-2020 07:00,11.6,
19-Jun-2020 08:00,19.3,
19-Jun-2020 09:00,11.9,
19-Jun-2020 10:00,9.6,
19-Jun-2020 11:00,19.1,
19-Jun-2020 12:00,19.1,
19-Jun-2020 13:00,17.1,
19-Jun-2020 14:00,17.9,
19-Jun-2020 15:00,31.4,
19-Jun-2020 16:00,20.2,
19-Jun-2020 17:00,21,
19-Jun-2020 18:00,37.8,
19-Jun-2020 19:00,33.2,
19-Jun-2020 20:00,39.5,
19-Jun-2020 21:00,30.8,
19-Jun-2020 22:00,30,
19-Jun-2020 23:00,30.3,
20-Jun-2020 00:00,32.3,
20-Jun-2020 01:00,34.6,
20-Jun-2020 02:00,37.1,
20-Jun-2020 03:00,38.4,
20-Jun-2020 04:00,34.8,
20-Jun-2020 05:00,25.4,
20-Jun-2020 06:00,25.2,
20-Jun-2020 07:00,20.1,
20-Jun-2020 08:00,15.4,
20-Jun-2020 09:00,14.3,
20-Jun-2020 10:00,15.4,
20-Jun-2020 11:00,21.8,
20-Jun-2020 12:00,20.4,
20-Jun-2020 13:00,19.1,
20-Jun-2020 14:00,19.7,
20-Jun-2020 15:00,17.7,
20-Jun-2020 16:00,30.7,
20-Jun-2020 17:00,42.4,
20-Jun-2020 18:00,30.8,
20-Jun-2020 19:00,31.2,
20-Jun-2020 20:00,32,
20-Jun-2020 21:00,25,
20-Jun-2020 22:00,28.5,
20-Jun-2020 23:00,31.2,
21-Jun-2020 00:00,31.3,
21-Jun-2020 01:00,36.9,
21-Jun-2020 02:00,39.1,
21-Jun-2020 03:00,39.9,
21-Jun-2020 04:00,37.4,
21-Jun-2020 05:00,29.1,
21-Jun-2020 06:00,29.7,
21-Jun-2020 07:00,24.1,
21-Jun-2020 08:00,23.2,
21-Jun-2020 09:00,25.5,
21-Jun-2020 10:00,22.4,
21-Jun-2020 11:00,23.3,
21-Jun-2020 12:00,18.7,
21-Jun-2020 13:00,20.5,
21-Jun-2020 14:00,18.7,
21-Jun-2020 15:00,24.1,
21-Jun-2020 16:00,24.2,
21-Jun-2020 17:00,28.9,
21-Jun-2020 18:00,25.3,
21-Jun-2020 19:00,31.1,
21-Jun-2020 20:00,31.6,
21-Jun-2020 21:00,32.8,
21-Jun-2020 22:00,31.9,
21-Jun-2020 23:00,28.7,
22-Jun-2020 00:00,38.8,
22-Jun-2020 01:00,34.4,
22-Jun-2020 02:00,40.6,
22-Jun-2020 03:00,36.7,
22-Jun-2020 04:00,47.9,
22-Jun-2020 05:00,39.3,
22-Jun-2020 06:00,30.7,
22-Jun-2020 07:00,27.3,
22-Jun-2020 08:00,18.3,
22-Jun-2020 09:00,19.1,
22-Jun-2020 10:00,25.7,
22-Jun-2020 11:00,35.1,
22-Jun-2020 12:00,26.1,
22-Jun-2020 13:00,34.6,
22-Jun-2020 14:00,30.2,
22-Jun-2020 15:00,19.4,
22-Jun-2020 16:00,33.8,
22-Jun-2020 17:00,27.9,
22-Jun-2020 18:00,22.3,
22-Jun-2020 19:00,17.2,
22-Jun-2020 20:00,25.6,
22-Jun-2020 21:00,25.7,
22-Jun-2020 22:00,26.4,
22-Jun-2020 23:00,57.4,
23-Jun-2020 00:00,33.1,
23-Jun-2020 01:00,34.4,
23-Jun-2020 02:00,44.8,
23-Jun-2020 03:00,54.9,
23-Jun-2020 04:00,60.8,
23-Jun-2020 05:00,29.1,
23-Jun-2020 06:00,28.2,
23-Jun-2020 07:00,22.4,
23-Jun-2020 08:00,23.6,
23-Jun-2020 09:00,22.8,
23-Jun-2020 10:00,48,
23-Jun-2020 11:00,26.2,
23-Jun-2020 12:00,25.3,
23-Jun-2020 13:00,24.8,
23-Jun-2020 14:00,26.6,
23-Jun-2020 15:00,24.4,
23-Jun-2020 16:00,11.6,
23-Jun-2020 17:00,30.2,
23-Jun-2020 18:00,30.5,
23-Jun-2020 19:00,36.3,
23-Jun-2020 20:00,38.8,
23-Jun-2020 21:00,37.5,
23-Jun-2020 22:00,31.8,
23-Jun-2020 23:00,33.7,
24-Jun-2020 00:00,37.1,
24-Jun-2020 01:00,35.4,
24-Jun-2020 02:00,36.4,
24-Jun-2020 03:00,34.2,
24-Jun-2020 04:00,44.1,
24-Jun-2020 05:00,45.4,
24-Jun-2020 06:00,27.8,
24-Jun-2020 07:00,17.9,
24-Jun-2020 08:00,10.1,
24-Jun-2020 09:00,17.6,
24-Jun-2020 10:00,24.8,
24-Jun-2020 11:00,34.8,
24-Jun-2020 12:00,14.2,
24-Jun-2020 13:00,21.5,
24-Jun-2020 14:00,31.2,
24-Jun-2020 15:00,28.5,
24-Jun-2020 16:00,42.2,
24-Jun-2020 17:00,52.7,
24-Jun-2020 18:00,44.3,
24-Jun-2020 19:00,26.3,
24-Jun-2020 20:00,23.1,
24-Jun-2020 21:00,31.2,
24-Jun-2020 22:00,39.1,
24-Jun-2020 23:00,40.6,
25-Jun-2020 00:00,29.6,
25-Jun-2020 01:00,37.3,
25-Jun-2020 02:00,34,
25-Jun-2020 03:00,41.4,
25-Jun-2020 04:00,40.9,
25-Jun-2020 05:00,59,
25-Jun-2020 06:00,31,
25-Jun-2020 07:00,,AV
25-Jun-2020 08:00,,AV
25-Jun-2020 09:00,,AV
25-Jun-2020 10:00,,AV
25-Jun-2020 11:00,,AV
25-Jun-2020 12:00,,BA
25-Jun-2020 13:00,,BA
25-Jun-2020 14:00,,BA
25-Jun-2020 15:00,39.6,
25-Jun-2020 16:00,125.4,
25-Jun-2020 17:00,203.2,
25-Jun-2020 18:00,94.9,
25-Jun-2020 19:00,13.3,
25-Jun-2020 20:00,,AV
25-Jun-2020 21:00,,AV
25-Jun-2020 22:00,,AV
25-Jun-2020 23:00,14,
26-Jun-2020 00:00,13.6,
26-Jun-2020 01:00,18.5,
26-Jun-2020 02:00,15.6,
26-Jun-2020 03:00,13.5,
26-Jun-2020 04:00,13.6,
26-Jun-2020 05:00,16,
26-Jun-2020 06:00,11.9,
26-Jun-2020 07:00,12.6,
26-Jun-2020 08:00,13.2,
26-Jun-2020 09:00,9.8,
26-Jun-2020 10:00,,BA
26-Jun-2020 11:00,,BA
26-Jun-2020 12:00,,BA
26-Jun-2020 13:00,7.4,
26-Jun-2020 14:00,6.5,
26-Jun-2020 15:00,21.2,
26-Jun-2020 16:00,31.6,
26-Jun-2020 17:00,29,
26-Jun-2020 18:00,22.9,
26-Jun-2020 19:00,21.2,
26-Jun-2020 20:00,26.7,
26-Jun-2020 21:00,29,
26-Jun-2020 22:00,31.1,
26-Jun-2020 23:00,31.4,
27-Jun-2020 00:00,34.1,
27-Jun-2020 01:00,41.6,
27-Jun-2020 02:00,32.8,
27-Jun-2020 03:00,39.7,
27-Jun-2020 04:00,24.1,
27-Jun-2020 05:00,30.8,
27-Jun-2020 06:00,21.2,
27-Jun-2020 07:00,22.6,
27-Jun-2020 08:00,16.1,
27-Jun-2020 09:00,20,
27-Jun-2020 10:00,33.4,
27-Jun-2020 11:00,27.9,
27-Jun-2020 12:00,26.5,
27-Jun-2020 13:00,38.5,
27-Jun-2020 14:00,35.5,
27-Jun-2020 15:00,36.7,
27-Jun-2020 16:00,48.7,
27-Jun-2020 17:00,80.7,
27-Jun-2020 18:00,50.1,
27-Jun-2020 19:00,51.6,
27-Jun-2020 20:00,39.9,
27-Jun-2020 21:00,28.7,
27-Jun-2020 22:00,19.9,
27-Jun-2020 23:00,26.8,
28-Jun-2020 00:00,10.9,
28-Jun-2020 01:00,25.7,
28-Jun-2020 02:00,29.5,
28-Jun-2020 03:00,25.4,
28-Jun-2020 04:00,22.3,
28-Jun-2020 05:00,10.7,
28-Jun-2020 06:00,-4.9,
28-Jun-2020 07:00,-2.9,
28-Jun-2020 08:00,10.5,
28-Jun-2020 09:00,25.9,
28-Jun-2020 10:00,8.9,
28-Jun-2020 11:00,4.1,
28-Jun-2020 12:00,8.5,
28-Jun-2020 13:00,4.7,
28-Jun-2020 14:00,25.5,
28-Jun-2020 15:00,31.6,
28-Jun-2020 16:00,34.1,
28-Jun-2020 17:00,31.4,
28-Jun-2020 18:00,33.4,
28-Jun-2020 19:00,30.4,
28-Jun-2020 20:00,53.9,
28-Jun-2020 21:00,61.9,
28-Jun-2020 22:00,41,
28-Jun-2020 23:00,32.7,
29-Jun-2020 00:00,106.2,
29-Jun-2020 01:00,150.9,
29-Jun-2020 02:00,128.9,
29-Jun-2020 03:00,75.4,
29-Jun-2020 04:00,54.9,
29-Jun-2020 05:00,47.4,
29-Jun-2020 06:00,34.8,
29-Jun-2020 07:00,37.1,
29-Jun-2020 08:00,41.8,
29-Jun-2020 09:00,48,
29-Jun-2020 10:00,67.6,
29-Jun-2020 11:00,79.3,
29-Jun-2020 12:00,64,
29-Jun-2020 13:00,60.7,
29-Jun-2020 14:00,62.1,
29-Jun-2020 15:00,80.2,
29-Jun-2020 16:00,54.1,
29-Jun-2020 17:00,45.2,
29-Jun-2020 18:00,37.9,
29-Jun-2020 19:00,42.7,
29-Jun-2020 20:00,34.4,
29-Jun-2020 21:00,35.5,
29-Jun-2020 22:00,42.1,
29-Jun-2020 23:00,32.5,
30-Jun-2020 00:00,15.5,
30-Jun-2020 01:00,15.4,
30-Jun-2020 02:00,13.9,
30-Jun-2020 03:00,12.7,
30-Jun-2020 04:00,17.5,
30-Jun-2020 05:00,13.7,
30-Jun-2020 06:00,12,
30-Jun-2020 07:00,8.9,
30-Jun-2020 08:00,11.4,
30-Jun-2020 09:00,,BA
30-Jun-2020 10:00,,BA
30-Jun-2020 11:00,,BA
30-Jun-2020 12:00,31.2,
30-Jun-2020 13:00,31.8,
30-Jun-2020 14:00,38.6,
30-Jun-2020 15:00,40.4,
30-Jun-2020 16:00,42.7,
30-Jun-2020 17:00,28.2,
30-Jun-2020 18:00,30.6,
30-Jun-2020 19:00,28.1,
30-Jun-2020 20:00,34.9,
30-Jun-2020 21:00,34.4,
30-Jun-2020 22:00,34.1,
30-Jun-2020 23:00,51.9,
